Regional Weather Roundup
Issued by NWS Grand Forks, ND

Home | Current Version | Previous Version | Text Only | Print | Product List | Glossary Off
Versions: 1 2 3 4 5 6 7 8 9 10 11 12 13 14 15 16 17 18 19 20 21 22 23 24 25 26 27 28 29 30 31 32 33 34 35 36 37 38 39 40 41 42 43 44 45 46 47 48 49 50

000
ASUS43 KFGF 111010
RWRFGF
PRAIRIE TO PINES  WEATHER ROUNDUP
NATIONAL WEATHER SERVICE EASTERN NORTH DAKOTA/GRAND FORKS ND
400 AM CST THU FEB 11 2016

 **SATELLITE DATA USED TO AUGMENT SKY COVER AT AUTOMATED STATIONS**
 *****  WEATHER ACROSS EASTERN NORTH DAKOTA  *****

CITY           SKY/WX    TMP DP  RH WIND       PRES   REMARKS
GRAND FORKS    PTCLDY     2  -4  76 CALM      30.29R
GRAND FRKS AFB CLOUDY     0  -5  78 SW5       30.28S WCI -10
DEVILS LAKE    FLURRIES   1  -2  87 CALM      30.21F
FARGO          CLOUDY     1  -4  79 W3        30.29R
WAHPETON ARPT  MOSUNNY   -4  -9  77 NW3       30.29S
$$

 ***** WEATHER ACROSS CENTRAL AND WESTERN NORTH DAKOTA  *****

CITY           SKY/WX    TMP DP  RH WIND       PRES   REMARKS
BISMARCK       CLOUDY    19  12  74 SE5       30.16F WCI  12
MINOT          CLOUDY    15   6  67 CALM      30.15S
JAMESTOWN      CLOUDY     6   1  80 S6        30.21F WCI  -4
MINOT AFB      CLOUDY    12   9  89 SE2       30.14F
GARRISON         N/A     15  11  83 SE5       30.13F WCI   8
WILLISTON      LGT SNOW  26  23  88 E3        30.08F FOG
DICKINSON      CLOUDY    25  22  88 SE6       30.04S WCI  18
HETTINGER      CLOUDY    29  24  82 S6        30.06F WCI  23
$$

 *****  OTHER AIRPORT OBSERVATIONS IN OUR AREA  *****

CITY           SKY/WX    TMP DP  RH WIND       PRES   REMARKS
WALHALLA         N/A      0   0 100 CALM      30.27F
GRAFTON AIRPOR FAIR       0  -4  85 CALM      30.31S
VALLEY CITY AR CLOUDY    -2  -4  92 CALM      30.26S
CANDO          NOT AVBL
CAVALIER APRT  PTSUNNY    0  -2  92 CALM      30.28S
GWINNER        CLOUDY     9   3  78 CALM      30.26S
SHEYENNE NWR     N/A     -7 -13  74 CALM      29.95S
ROLLA          CLOUDY     5   1  85 SW5       30.17S WCI  -4
 ***** THE ABOVE OBSERVATIONS ARE NON NWS ARE NOT QUALITY
       CONTROLLED AND MAY MIS-REPORT RAIN FOR SNOW...
$$

  *****  WEATHER ACROSS NORTHERN MINNESOTA  *****

CITY           SKY/WX    TMP DP  RH WIND       PRES   REMARKS
FLAG ISLAND    CLOUDY    -6 -11  77 CALM      30.23F
WARROAD        CLOUDY   -13 -18  77 CALM      30.25F
ROSEAU         CLOUDY   -17 -24  70 SW3       30.26F
HALLOCK        CLOUDY    -8 -11  84 S3        30.28F
THF RVR FALLS  CLOUDY    -8 -22  49 CALM      30.27S
BAUDETTE       CLOUDY   -15 -22  70 CALM      30.23S
WASKISH        PTCLDY   -20 -26  76 CALM      30.24F
CROOKSTON      CLOUDY     0  -6  78 E3        30.30R
STEPHEN NDAWN    N/A     -6  -8  92 CALM        N/A
GREENBUSH NDAW   N/A    -15 -18  84 SE2         N/A
$$
  *****  WEATHER ACROSS CENTRAL AND WEST MINNESOTA  *****

CITY           SKY/WX    TMP DP  RH WIND       PRES   REMARKS
FOSSTON        PTCLDY   -17 -24  70 CALM      30.26S
BEMIDJI        CLOUDY   -18 -23  77 CALM      30.24S
PARK RAPIDS    PTCLDY    -9 -15  75 CALM      30.23S
ELBOW LAKE     FAIR       3   0  87 S3        30.26S
WADENA         PTCLDY    -6  -9  84 CALM      30.23F
DETROIT LAKES  CLOUDY    -4  -8  84 CALM      30.24S
MOORHEAD       CLOUDY     1  -2  85 CALM      30.29S
FERGUS FALLS   CLOUDY     1   0  92 CALM      30.30S
MORRIS MN      PTCLDY     0  -4  85 W3        30.25F
STAPLES        PTCLDY    -8 -11  84 CALM      30.24S
$$
  *****  WEATHER ELSEWHERE ACROSS MINNESOTA  *****

CITY           SKY/WX    TMP DP  RH WIND       PRES   REMARKS
DULUTH         CLOUDY    -8 -13  78 NW3       30.21R
INTRNTL FALLS  CLOUDY   -11 -16  78 W3        30.23F
ELY            CLOUDY   -24 -29  76 CALM      30.20R
CLOQUET        PTCLDY   -13 -18  77 W3        30.23S
WHEATON        PTCLDY     1  -2  85 SW5       30.30S WCI  -8
BRAINERD       CLOUDY   -12 -18  74 CALM      30.26F
HIBBING        PTCLDY   -22 -26  82 CALM      30.22S
ALEXANDRIA     CLOUDY     1  -6  72 CALM      30.23F
SAINT CLOUD    PTCLDY    -1  -7  75 CALM      30.28R
MINNEAPOLIS    CLOUDY     5  -4  66 CALM      30.29S
$$

  *****  WEATHER ACROSS SOUTH DAKOTA  *****

CITY           SKY/WX    TMP DP  RH WIND       PRES   REMARKS
SIOUX FALLS    CLOUDY    13   4  67 E5        30.24S WCI   5
BROOKINGS      CLOUDY    11   6  81 S3        30.23R
WATERTOWN      CLOUDY    11   5  77 S5        30.21S WCI   3
HURON          CLOUDY    16  10  77 CALM      30.24F
SISSETON         N/A      0  -3  87 CALM      30.26F
ABERDEEN       CLOUDY    14   9  80 CALM      30.25R
MITCHELL       CLOUDY    18  12  77 SE6       30.26R WCI  10
PIERRE         CLOUDY    21  19  92 E5        30.17S WCI  15
MOBRIDGE       CLOUDY    19  15  84 SE7       30.13F WCI  10
RAPID CITY     CLOUDY    28  26  92 S12       30.04F FOG     WCI  18
$$

  *****  SOME WEATHER IN NEARBY STATES *****

CITY           SKY/WX    TMP DP  RH WIND       PRES   REMARKS
GLASGOW MT     CLOUDY    29  25  85 SE16      29.99F WCI  17
GREAT FALLS MT CLOUDY    43  28  55 W9        30.08R
CHEYENNE WY    CLOUDY    37  15  40 MISG      30.14F
SCOTTSBLUFF NE CLEAR     31  23  72 NW7       30.09F WCI  24
OMAHA NE       PTCLDY    16  10  77 NE6       30.25F WCI   7
DES MOINES IA  CLOUDY    10  -1  61 NE9       30.27R WCI  -3
DAVENPORT IA   CLEAR      8   2  76 N8        30.26R WCI  -4
CHICAGO IL     CLEAR      9  -2  61 N10       30.20R WCI  -5
EAU CLAIRE WI  CLOUDY    -5 -10  79 CALM      30.27R
LA CROSSE WI   CLOUDY     0  -5  79 CALM      30.30R
$$

  *****  SOME NATIONAL WEATHER *****

CITY           SKY/WX    TMP DP  RH WIND       PRES   REMARKS
LA GUARDIA NY  MOCLDY    26   7  44 NW23G32   29.80R WCI  11
RALEIGH NC     CLEAR     22   5  48 NW5       30.13R WCI  16
ATLANTA GA     PTCLDY    29  13  51 CALM      30.14S
NEW ORLEANS LA CLEAR     46  38  73 S7        30.20F
OKLAHOMA CITY  PTCLDY    45  31  58 N7        30.02R
ALBUQUERQUE NM CLOUDY    42  22  44 N9        30.31S
SALT LAKE CITY CLOUDY    29  27  92 VRB5      30.45F FOG     WCI  24
LOS ANGELES CA PTCLDY    62  36  37 CALM      30.08S
BOISE ID       CLEAR     30  28  92 E3        30.41S FOG
SEATTLE WA     CLOUDY    48  46  93 N7        30.25F
$$

*** WEATHER ACROSS MANITOBA...SASKATCHEWAN AND ONTARIO ***
                ***ONTARIO***

CITY           SKY/WX    TMP DP  RH WIND       PRES   REMARKS
GERALDTON      CLEAR    -22 -26  83 W7        30.07S WCI -39
THUNDER BAY    CLEAR    -18 -24  76 W3        30.22F
SIOUX LOOKOUT  FLURRIES -17 -22  76 NW2       30.15F
TORONTO        PTCLDY     5  -4  66 NW16      29.89R WCI -14
BIG TROUT LK   CLEAR    -18 -24  76 W10       30.01F WCI -39
PICKLE LAKE    NOT AVBL
DRYDEN         CLOUDY    -8 -13  77 SW7       30.16F WCI -22
KENORA         CLOUDY    -2  -9  71 NW5       30.19F WCI -12
$$
                *** MANITOBA***

CITY           SKY/WX    TMP DP  RH WIND       PRES   REMARKS
BRANDON        FLURRIES   5   1  85 SW6       30.20F WCI  -6
DAUPHIN        FLURRIES   7   3  85 NE9       30.24F WCI  -7
ISLAND LAKE    NOT AVBL
PILOT MOUND      N/A      3   0  85 SW5         N/A  WCI  -6
THE PAS        CLEAR    -11 -15  84 NW10      30.29F WCI -30
THOMPSON       CLEAR    -18 -24  76 NW9       30.18F WCI -38
WINNIPEG       MOCLDY    -2  -8  78 S6        30.27F WCI -14
LYNN LAKE      CLEAR    -20 -26  76 W7        30.21F WCI -37
CHURCHILL      CRYSTALS -22 -29  69 N24G32    30.08S BLWGSNOWWCI -53
GILLAM         CLEAR    -24 -31  69 W10       30.12F WCI -46
$$
                ***SASKATCHEWAN***

CITY           SKY/WX    TMP DP  RH WIND       PRES   REMARKS
ESTEVAN        FLURRIES  14  10  85 E7        30.12S WCI   4
KINDERSLEY     FLURRIES  19  16  86 E10G17    30.07R WCI   8
LLOYDMINSTER   FLURRIES  12   9  85 E9        30.13R WCI   0
PRINCE ALBERT  FLURRIES   5   1  85 SE6       30.25F WCI  -6
REGINA         FLURRIES  16  12  86 E3        30.13S
YORKTON        FLURRIES   7   5  92 N10       30.17F WCI  -8
N. BATTLEFORD  FLURRIES  10   9  92 E10       30.19F WCI  -3
LA RONGE       PTCLDY    -9 -13  84 CALM      30.30F
SASKATOON      CLOUDY    10   9  92 E12       30.20R WCI  -4
SWIFT CURRENT  LGT SNOW  19  19 100 E14       30.00R WCI   6
$$
NOTE: THESE ARE AUTOMATED STATIONS WITH LIMITED QUALITY CONTROL
      "FAIR" INDICATES FEW OR NO CLOUDS BELOW 12,000 FEET WITH NO
      SIGNIFICANT WEATHER AND/OR OBSTRUCTIONS TO VISIBILITY.
      SKY/WX - SKY CONDITION AND SIGNIFICANT WEATHER.
      TMP - AIR TEMPERATURE.    DP   - DEWPOINT TEMPERATURE.
      RH  - RELATIVE HUMIDITY.  PRES - PRESSURE.
      HX  - HEAT INDEX.         WCI  - WIND CHILL INDEX.
$




USA.gov is the U.S. government's official web portal to all federal, state and local government web resources and services.